This demonstration page uses our WeatherBlox Daily Observations layout. Learn more.

Left ArrowRight Arrow

39.01783, -85.05884

Hourly Observations for July 5, 2022

Temp ( °F °C ) Dew Point ( °F °C ) Humidity (%) Winds ( mph kmh ) Pressure ( in mb ) Visibility ( mi km ) Precip ( " mm )
12:52 am 00:52 Mostly Clear 78 25.6 69 20.6 74 74 SSE 6 9 30.00 1016 10 16 0.00 0.00
1:52 am 01:52 Mostly Clear 76 24.4 70 21.1 82 82 SSE 8 13 29.98 1015 10 16 0.00 0.00
2:52 am 02:52 Mostly Clear 77 25 71 21.7 82 82 S 8 13 29.97 1015 10 16 0.00 0.00
3:52 am 03:52 Mostly Clear 76 24.4 71 21.7 85 85 S 8 13 29.96 1014 10 16 0.00 0.00
4:52 am 04:52 Partly Cloudy 76 24.4 72 22.2 88 88 SSW 7 11 29.97 1015 9 14 0.00 0.00
5:52 am 05:52 Mostly Cloudy 76 24.4 73 22.8 91 91 SSW 6 9 29.98 1015 8 13 0.00 0.00
6:52 am 06:52 Mostly Cloudy 76 24.4 73 22.8 91 91 SW 6 9 29.99 1016 8 13 0.00 0.00
7:52 am 07:52 Partly Cloudy 78 25.6 74 23.3 87 87 SSW 8 13 29.98 1015 8 13 0.00 0.00
8:52 am 08:52 Mostly Cloudy 81 27.2 74 23.3 79 79 N 9 15 30.00 1016 9 14 0.00 0.00
9:52 am 09:52 Mostly Cloudy 83 28.3 74 23.3 74 74 NNE 8 13 30.00 1016 8 13 0.00 0.00
10:52 am 10:52 Mostly Sunny 85 29.4 75 23.9 72 72 VRB 6 9 29.98 1015 9 14 0.00 0.00
11:52 am 11:52 Mostly Cloudy 90 32.2 77 25 66 66 WSW 9 15 29.99 1016 9 14 0.00 0.00
12:52 pm 12:52 Partly Cloudy 92 33.3 77 25 62 62 SSW 8 13 29.97 1015 9 14 0.00 0.00
1:52 pm 13:52 Mostly Cloudy 93 33.9 76 24.4 58 58 VRB 7 11 29.95 1014 10 16 0.00 0.00
2:14 pm 14:14 Mostly Cloudy 87 30.6 73 22.8 63 63 ENE 16 26 29.95 1014 9 14 0.00 0.00
2:32 pm 14:32 Mostly Cloudy with Nearby Thunderstorms 85 29.4 74 23.3 70 70 E 14 22 29.94 1014 10 16 0.00 0.00
2:52 pm 14:52 Cloudy with Nearby Thunderstorms 83 28.3 72 22.2 70 70 E 18 30 29.95 1014 10 16 0.00 0.00
3:03 pm 15:03 Mostly Cloudy with Nearby Thunderstorms 83 28.3 72 22.2 70 70 E 13 20 29.92 1013 10 16 0.00 0.00
3:10 pm 15:10 Mostly Cloudy with Thunderstorms 82 27.8 73 22.8 74 74 ESE 10 17 29.91 1013 10 16 0.00 0.00
3:31 pm 15:31 Mostly Cloudy with Nearby Thunderstorms 87 30.6 75 23.9 67 67 SE 15 24 29.90 1012 10 16 0.00 0.00
3:41 pm 15:41 Mostly Cloudy 88 31.1 77 25 70 70 SSE 10 17 29.88 1012 10 16 0.00 0.00
3:52 pm 15:52 Partly Cloudy 87 30.6 77 25 72 72 SSE 14 22 29.91 1013 9 14 0.00 0.00
4:52 pm 16:52 Partly Cloudy 88 31.1 75 23.9 66 66 SSE 14 22 29.92 1013 10 16 0.00 0.00
5:52 pm 17:52 Mostly Cloudy 86 30 74 23.3 67 67 S 15 24 29.91 1013 10 16 0.00 0.00
6:52 pm 18:52 Mostly Cloudy 86 30 75 23.9 70 70 S 8 13 29.90 1013 10 16 0.00 0.00
7:52 pm 19:52 Mostly Sunny 86 30 75 23.9 70 70 S 12 19 29.89 1012 10 16 0.00 0.00
8:52 pm 20:52 Mostly Sunny 84 28.9 76 24.4 77 77 S 10 17 29.86 1011 10 16 0.00 0.00
9:52 pm 21:52 Mostly Clear 82 27.8 77 25 85 85 S 5 7 29.87 1012 10 16 0.00 0.00
10:52 pm 22:52 Mostly Clear 82 27.8 77 25 85 85 S 9 15 29.88 1012 10 16 0.00 0.00
11:52 pm 23:52 Mostly Clear 82 27.8 77 25 85 85 SSW 9 15 29.89 1012 10 16 0.00 0.00

Powered by AerisWeather